Regional Weather Roundup
Issued by NWS Charleston, SC

Current Version | Previous Version | Graphics & Text | Print | Product List | Glossary On
Versions: 1 2 3 4 5 6 7 8 9 10 11 12 13 14 15 16 17 18 19 20 21 22 23 24 25 26 27 28 29 30 31 32 33 34 35 36 37 38 39 40 41 42 43 44 45 46 47 48 49 50
000
ASUS42 KCHS 031512
RWRCHS

REGIONAL WEATHER ROUNDUP
NATIONAL WEATHER SERVICE CHARLESTON SC
1100 AM EDT FRI JUL 03 2015

NOTE: "FAIR" INDICATES FEW OR NO CLOUDS BELOW 12,000 FEET WITH NO
SIGNIFICANT WEATHER AND/OR OBSTRUCTIONS TO VISIBILITY.

NOT ALL STATIONS ARE QUALITY CONTROLLED BY THE NATIONAL
WEATHER SERVICE. USE DATA WITH CAUTION...ESPECIALLY
DEWPOINT OBSERVATIONS.

SCZ027-030-031-034>040-042>050-031600-
...SOUTHEAST SOUTH CAROLINA...

CITY           SKY/WX    TMP DP  RH WIND       PRES   REMARKS
N CHARLESTON   PTSUNNY   80  72  76 W7        30.02R
WATERFRONT PAR   N/A     77  74  91 SW7       29.99F
MOUNT PLEASANT FAIR      79  73  83 SW9       30.02S
JOHNS ISLAND   FAIR      81  75  83 SW12      30.02S
PINOPOLIS      NOT AVBL
MONCKS CORNER  FAIR      81  72  74 SW7       30.02R
SUMMERVILLE    PTSUNNY   79  73  83 SW6       30.03R
BEAUFORT MCAS  MOSUNNY   82  73  74 W10       30.03F
BEAUFORT ARPT  PTSUNNY   82  73  74 W10       30.03S
HILTON HEAD IS MOSUNNY   82  72  69 SW14G20   30.04S
WALTERBORO     PTSUNNY   77  72  83 W7        30.03R
ALLENDALE      FAIR      79  75  89 VRB3      30.00F

...SOUTHERN MIDLANDS AND PEE DEE...

CITY           SKY/WX    TMP DP  RH WIND       PRES   REMARKS
GEORGETOWN     NOT AVBL
KINGSTREE      NOT AVBL
ORANGEBURG     CLOUDY    77  71  82 SW13      29.99F
BARNWELL       FAIR      79  73  83 SW10      30.00F
AIKEN          NOT AVBL
MANNING        FAIR      77  70  78 SW8G18    30.00S
COLUMBIA       CLOUDY    79  69  71 W17       29.97R
SUMTER         PTSUNNY   77  72  83 SW12      29.96S
FLORENCE       PTSUNNY   76  73  91 S9        29.98S
MYRTLE BEACH   PTSUNNY   82  72  69 SW14      30.02
N MYRTLE BEACH PTSUNNY   81  72  74 SW9       30.00S

$$

GAZ063-065-086>088-099>101-113>116-118-119-134>141-150-031600-
...SOUTHEAST GEORGIA...

CITY           SKY/WX    TMP DP  RH WIND       PRES   REMARKS
SAVANNAH ARPT  MOSUNNY   85  72  65 W17       30.04S HX  91
HUNTER AAF     SUNNY     86  73  66 W16G23    30.02S HX  93
FORT STEWART   SUNNY     85  71  62 W13       30.03S
STATESBORO     NOT AVBL
SYLVANIA       PTSUNNY   82  77  83 W6        30.04S HX  90
CLAXTON        FAIR      82  73  74 W9        30.04F

...CSRA...CENTRAL AND FAR SOUTHEAST GEORGIA...

CITY           SKY/WX    TMP DP  RH WIND       PRES   REMARKS
THOMSON        CLOUDY    75  73  92 N3        30.05S
AUGUSTA-BUSH   CLOUDY    76  72  87 SW3       29.99S
AUGUSTA-DANIEL CLOUDY    74  70  87 NW7       30.02S
SWAINSBORO     CLOUDY    86  77  74 W10G20    30.03F HX  97
VIDALIA        MOSUNNY   84  73  70 W10G18    30.05S HX  91
EASTMAN        PTSUNNY   85  74  68 W8G17     30.07S HX  92
HAZLEHURST     FAIR      86  73  64 W7G17     30.05S HX  93
ALMA           SUNNY     84  71  65 W10       30.06F
WAYCROSS       SUNNY     88  77  69 W9        30.07S HX 100
JESUP          FAIR      88  73  62 W12       30.06S HX  96
BAXLEY         FAIR      86  72  62 W12G17    30.05F HX  92
BRUNSWICK      SUNNY     84  73  70 W9        30.08S HX  91
SAINT SIMONS   SUNNY     84  71  65 SW9       30.07S

$$

SCZ027-028-034-036>038-045-046-048>050-GAZ119-141-031600-
...LAKE AND SUPPLEMENTAL COASTAL OBSERVATIONS...

STATION/POSITION TIME  TEMP    WIND        PRES    WAVE   SWELL
                       AIR SEA DIR/SP/G            HT/PER HT/PER/DIR
                 (UTC) (F)     (DEG/KT/KT) (MB)    (FT/S) (FT/S/D)
UPR LAKE MARION  NOT AVBL
WINYAH BAY       1345   76     230/  9     1015.0
LAKE MURRAY      1400   77     230/ 14/ 16 1014.2R
ACE BASIN NERRS  NOT AVBL
FORT PULASKI     1400   81 83  240/ 11/ 18 1017.6F
SAPELO ISLAND    1400   81     240/ 13     1018.0S

$$

ANZ835-935-AMZ111-154-330-350-352-354-370-450-454-472-031600-
...C-MAN AND BUOY OBSERVATIONS...

STATION/POSITION TIME  TEMP    WIND        PRES    WAVE   SWELL
                       AIR SEA DIR/SP/G            HT/PER HT/PER/DIR
                 (UTC) (F)     (DEG/KT/KT) (MB)    (FT/S) (FT/S/D)
BUOY 41004       1450   81 81  250/ 17/ 21 1016.4F   5/ 5   2/ 8
BUOY 41008       1450   78 79  230/ 12/ 12 1018.1R   3/ 4   2/110/10
FOLLY BEACH CMAN 1400   75     230/  9/ 12 1016.6F
CAPERS NEARSHORE 1408   78     250/ 17/ 25 1016.6F
FRIPP NEARSHORE  1400   81     240/ 16/ 17 1016.6F


STATION/POSITION TIME  TEMP    WIND        PRES    WAVE   SWELL
                       AIR SEA DIR/SP/G            HT/PER HT/PER/DIR
                 (UTC) (F)     (DEG/KT/KT) (MB)    (FT/S) (FT/S/D)
5E ST. MARYS GA  1421      77                N/A     2/ 9
FRYING PAN BUOY  1450   80 79  230/ 19/ 23 1016.2S   5/ 6
BUOY 41025       1450   76 82  260/ 16/ 19 1015.3R   5/ 7   3/190/ 7
CAPE LOOKOUT NC  1400   78     270/ 15/ 18 1015.7R
BUOY 41002       1450   79 80  290/ 16/ 19 1019.5R   7/ 7   3/150/ 9
BUOY 41010       1420   83 84  200/ 10/ 10 1019.9R
ST AUGUSTINE FL  1500   85 73  250/  6/ 10 1019.8F


$$



USA.gov is the U.S. government's official web portal to all federal, state and local government web resources and services.